Location: Ashtead
(51.3000°N, 0.3000°W)
Time: 18:26:10
(UTC+00:00)

Cosmos 1805 Rocket - Pass Details

Date: 26 September 2023
Orbit: 604 x 626 km, 82.5° (Epoch: 07 December)

Event Time Altitude Azimuth Distance (km) Brightness Sun altitude
Rises 04:29:12 0° 350° (N) 2,875 7.1 -13.8°
Reaches altitude 10° 04:31:26 10° 352° (N) 1,966 6.2 -13.4°
Maximum altitude 04:35:47 76° 79° (E) 631 3.7 -12.8°
Drops below altitude 10° 04:40:06 10° 165° (SSE) 1,956 6.1 -12.1°
Sets 04:42:19 0° 167° (SSE) 2,858 7.0 -11.8°
